Weather History for Clarinda, IA

Change the Weather History Date:

Thursday, January 17, 2013

  Actual Average Record
Temperature  
Mean Temperature 30 °F -  
Max Temperature 42 °F 33 °F 44 °F (1999)
Min Temperature 17 °F 14 °F -16 °F (1997)
Degree Days  
Heating Degree Days 36    
Moisture  
Dew Point 19 °F    
Average Humidity 71    
Maximum Humidity 93    
Minimum Humidity 41    
Precipitation  
Precipitation 0.00 in - - ()
Sea Level Pressure  
Sea Level Pressure 30.38 in    
Wind  
Wind Speed 5 mph (NW)    
Max Wind Speed 12 mph    
Max Gust Speed -    
Visibility 10 miles    
Events      
Averages and records for this station are not official NWS values.
T = Trace of Precipitation, MM = Missing Value Source: NWS Daily Summary

Daily Weather History Graph

Daily Weather History Graph

Search for Another Location

Airport:

Trip Planner

Search our weather history database for the weather conditions in past years. The results will help you decide how hot, cold, wet, or windy it might be!

Date:

Astronomy

Jan. 17, 2013 Rise Set
Actual Time 7:41 AM CST 5:20 PM CST
Civil Twilight 7:11 AM CST 5:50 PM CST
Nautical Twilight 6:37 AM CST 6:23 PM CST
Astronomical Twilight 6:04 AM CST 6:56 PM CST
Moon 10:45 AM CST No Moon Set
Length of Visible Light 10h 39m
Length of Day
9h 39m
Waxing Crescent, 38% of the Moon is Illuminated
Jan 17
Waxing Crescent
Jan 18
First Quarter
Jan 26
Full
Feb 3
Last Quarter
Feb 10
New

Hourly Weather History & Observations

Time (CST) Temp. Windchill Dew Point Humidity Pressure Visibility Wind Dir Wind Speed Gust Speed Precip Events Conditions
12:15 AM 32.0 °F 23.0 °F 26.6 °F 80% 30.22 in 10.0 mi North 11.5 mph - N/A   Clear
12:35 AM 30.2 °F 21.9 °F 26.6 °F 86% 30.23 in 10.0 mi North 9.2 mph - N/A   Scattered Clouds
12:55 AM 30.2 °F 24.3 °F 26.6 °F 86% 30.25 in 10.0 mi North 5.8 mph - N/A   Mostly Cloudy
1:15 AM 28.4 °F 22.2 °F 24.8 °F 86% 30.26 in 10.0 mi North 5.8 mph - N/A   Scattered Clouds
1:35 AM 28.4 °F 23.3 °F 24.8 °F 86% 30.28 in 10.0 mi NW 4.6 mph - N/A   Clear
1:55 AM 28.4 °F 20.4 °F 24.8 °F 86% 30.28 in 10.0 mi NNW 8.1 mph - N/A   Clear
2:15 AM 28.4 °F 21.2 °F 23.0 °F 80% 30.29 in 10.0 mi NNW 6.9 mph - N/A   Clear
2:35 AM 26.6 °F 20.0 °F 23.0 °F 86% 30.30 in 10.0 mi NNW 5.8 mph - N/A   Clear
2:55 AM 26.6 °F 21.2 °F 21.2 °F 80% 30.30 in 10.0 mi North 4.6 mph - N/A   Clear
3:15 AM 26.6 °F 18.2 °F 21.2 °F 80% 30.30 in 10.0 mi NNW 8.1 mph - N/A   Clear
3:35 AM 26.6 °F 19.1 °F 19.4 °F 74% 30.31 in 10.0 mi NNW 6.9 mph - N/A   Clear
3:55 AM 24.8 °F 20.5 °F 19.4 °F 80% 30.32 in 10.0 mi North 3.5 mph - N/A   Clear
4:15 AM 24.8 °F 17.9 °F 19.4 °F 80% 30.33 in 10.0 mi NNW 5.8 mph - N/A   Clear
4:35 AM 24.8 °F 17.9 °F 19.4 °F 80% 30.34 in 10.0 mi NNW 5.8 mph - N/A   Clear
4:55 AM 24.8 °F 19.1 °F 17.6 °F 74% 30.34 in 10.0 mi NNW 4.6 mph - N/A   Clear
5:15 AM 23.0 °F - 17.6 °F 80% 30.35 in 10.0 mi Calm Calm - N/A   Clear
5:35 AM 21.2 °F 16.4 °F 17.6 °F 86% 30.37 in 10.0 mi NNW 3.5 mph - N/A   Clear
5:55 AM 23.0 °F 17.0 °F 17.6 °F 80% 30.37 in 10.0 mi North 4.6 mph - N/A   Clear
6:15 AM 21.2 °F - 15.8 °F 80% 30.38 in 10.0 mi Calm Calm - N/A   Clear
6:35 AM 19.4 °F - 15.8 °F 86% 30.38 in 10.0 mi Calm Calm - N/A   Clear
6:55 AM 21.2 °F - 15.8 °F 80% 30.39 in 10.0 mi Calm Calm - N/A   Clear
7:15 AM 19.4 °F - 15.8 °F 86% 30.40 in 10.0 mi Calm Calm - N/A   Clear
7:35 AM 19.4 °F - 15.8 °F 86% 30.40 in 10.0 mi Calm Calm - N/A   Clear
7:55 AM 17.6 °F - 14.0 °F 86% 30.41 in 10.0 mi Calm Calm - N/A   Clear
8:15 AM 19.4 °F - 15.8 °F 86% 30.43 in 10.0 mi Calm Calm - N/A   Clear
8:35 AM 21.2 °F - 15.8 °F 80% 30.44 in 10.0 mi Calm Calm - N/A   Clear
8:55 AM 21.2 °F - 15.8 °F 80% 30.45 in 10.0 mi Calm Calm - N/A   Clear
9:15 AM 23.0 °F - 12.2 °F 63% 30.45 in 10.0 mi Calm Calm - N/A   Clear
9:35 AM 24.8 °F - 12.2 °F 59% 30.46 in 10.0 mi Calm Calm - N/A   Clear
9:55 AM 24.8 °F - 10.4 °F 54% 30.46 in 10.0 mi Calm Calm - N/A   Clear
10:15 AM 26.6 °F 21.2 °F 12.2 °F 55% 30.46 in 10.0 mi NE 4.6 mph - N/A   Clear
10:35 AM 28.4 °F 22.2 °F 12.2 °F 51% 30.46 in 10.0 mi NNE 5.8 mph - N/A   Clear
10:55 AM 30.2 °F 26.7 °F 14.0 °F 51% 30.45 in 10.0 mi NE 3.5 mph - N/A   Clear
11:15 AM 30.2 °F - 12.2 °F 47% 30.45 in 10.0 mi Calm Calm - N/A   Clear
11:35 AM 33.8 °F 30.8 °F 12.2 °F 41% 30.45 in 10.0 mi SW 3.5 mph - N/A   Clear
11:55 AM 35.6 °F 31.7 °F 14.0 °F 41% 30.45 in 10.0 mi WSW 4.6 mph - N/A   Clear
12:15 PM 37.4 °F 33.8 °F 17.6 °F 45% 30.43 in 10.0 mi WSW 4.6 mph - N/A   Clear
12:35 PM 37.4 °F 32.8 °F 17.6 °F 45% 30.43 in 10.0 mi West 5.8 mph - N/A   Clear
12:55 PM 37.4 °F 34.9 °F 19.4 °F 48% 30.42 in 10.0 mi West 3.5 mph - N/A   Clear
1:15 PM 37.4 °F - 19.4 °F 48% 30.42 in 10.0 mi Calm Calm - N/A   Clear
1:35 PM 39.2 °F 37.0 °F 21.2 °F 49% 30.41 in 10.0 mi West 3.5 mph - N/A   Clear
1:55 PM 39.2 °F 35.9 °F 21.2 °F 49% 30.41 in 10.0 mi West 4.6 mph - N/A   Clear
2:15 PM 41.0 °F - 21.2 °F 45% 30.39 in 10.0 mi Calm Calm - N/A   Clear
2:35 PM 42.8 °F 40.1 °F 23.0 °F 46% 30.39 in 10.0 mi SW 4.6 mph - N/A   Clear
2:55 PM 42.8 °F 40.1 °F 24.8 °F 49% 30.39 in 10.0 mi WSW 4.6 mph - N/A   Clear
3:15 PM 42.8 °F 41.1 °F 26.6 °F 53% 30.39 in 10.0 mi West 3.5 mph - N/A   Clear
3:35 PM 42.8 °F 40.1 °F 26.6 °F 53% 30.39 in 10.0 mi WSW 4.6 mph - N/A   Clear
3:55 PM 42.8 °F 41.1 °F 26.6 °F 53% 30.40 in 10.0 mi SW 3.5 mph - N/A   Clear
4:55 PM 39.2 °F 37.0 °F 26.6 °F 61% 30.40 in 10.0 mi WSW 3.5 mph - N/A   Clear
5:35 PM 33.8 °F - 24.8 °F 70% 30.40 in 10.0 mi Calm Calm - N/A   Clear
7:55 PM 24.8 °F - 21.2 °F 86% 30.40 in 10.0 mi Calm Calm - N/A   Clear
8:15 PM 24.8 °F - 21.2 °F 86% 30.39 in 10.0 mi Calm Calm - N/A   Clear
8:55 PM 21.2 °F - 19.4 °F 93% 30.38 in 10.0 mi Calm Calm - N/A   Clear
9:15 PM 21.2 °F - 19.4 °F 93% 30.38 in 10.0 mi Calm Calm - N/A   Clear
9:35 PM 23.0 °F - 19.4 °F 86% 30.37 in 10.0 mi Calm Calm - N/A   Clear
9:55 PM 21.2 °F - 19.4 °F 93% 30.37 in 10.0 mi Calm Calm - N/A   Clear
11:15 PM 21.2 °F - 19.4 °F 93% 30.34 in 10.0 mi Calm Calm - N/A   Clear
11:35 PM 21.2 °F - 19.4 °F 93% 30.34 in 10.0 mi Calm Calm - N/A   Clear
11:55 PM 21.2 °F - 17.6 °F 86% 30.33 in 7.0 mi Calm Calm - N/A   Clear